Location: CARMA
(37.2805°N, 118.1419°W)
Time: 00:58:56
(UTC-07:00)

Daily predictions for brighter satellites

Satellite Brightness Start Highest point End
(mag) Time Altitude Azimuth Time Altitude Azimuth Time Altitude Azimuth
Cosmos 1417 Rocket 4.5 00:10:14 10° N 00:15:59 74° NE 00:15:59 74° NE
Cosmos 1553 Rocket 4.2 00:15:27 10° N 00:21:33 64° ENE 00:21:33 64° ENE
NOSS 3-2 (A) 3.4 00:22:02 80° NNW 00:22:02 80° NNW 00:28:24 10° NNE
CZ-4B R/B 4.2 00:25:00 21° N 00:25:00 21° N 00:26:18 10° N
Atlas Centaur 2 4.2 00:16:56 10° W 00:20:39 27° WSW 00:20:39 27° WSW
Cosmos 2344 3.9 00:27:26 51° ESE 00:27:26 51° ESE 00:35:11 10° NE
Cosmos 2278 4.2 00:32:01 10° NNW 00:37:03 55° NE 00:37:03 55° NE
Cosmos 2266 Rocket 4.2 00:47:04 62° ENE 00:47:04 62° ENE 00:53:03 10° NNE
S3M 4.0 00:42:19 10° N 00:48:02 71° NW 00:48:02 71° NW
Lacrosse 5 4.4 00:46:01 10° NNW 00:49:27 18° NNE 00:52:53 10° ENE
Cosmos 1867 4.2 00:54:30 53° NNE 00:54:30 53° NNE 00:58:41 10° NNE
Cosmos 2082 Rocket 2.9 00:56:18 48° ENE 00:56:18 48° ENE 01:00:34 10° NNE
Timation 2 Rocket 4.1 00:55:08 79° W 00:55:16 79° WNW 01:02:09 10° NNE
CZ-4C R/B 2.9 00:57:08 46° NW 00:57:11 46° NW 01:02:53 10° NNE
Cosmos 1697 Rocket 4.1 00:53:24 10° N 00:58:18 29° ENE 00:59:19 28° ENE
Cosmos 1833 Rocket 3.4 01:05:18 45° ENE 01:05:18 45° ENE 01:09:32 10° NNE
Meteor 2-20 4.5 01:11:21 74° NW 01:11:21 74° NW 01:17:06 10° N
CZ-2C R/B 3.8 01:11:20 49° ENE 01:11:20 49° ENE 01:16:37 10° N
Cosmos 841 Rocket 4.1 01:09:23 10° NNW 01:13:35 55° N 01:13:35 55° N
NOSS 3-3 (A) 4.5 01:14:56 10° NW 01:22:13 63° WSW 01:22:13 63° WSW
NOSS 3-3 (C) 4.5 01:15:03 10° NW 01:22:22 63° WSW 01:22:22 63° WSW
CENTAUR R/B 2.9 01:24:49 52° E 01:24:49 52° E 01:30:33 10° NE
Cosmos 1656 3.9 01:24:22 10° NNW 01:29:39 67° NE 01:29:39 67° NE
Aureole 1 Rocket 4.3 01:28:05 10° N 01:32:45 47° ENE 01:32:51 47° ENE
CZ-2C R/B 3.2 01:34:17 10° N 01:39:10 51° NW 01:39:10 51° NW
ASTEX 1 4.0 01:39:15 10° N 01:43:14 55° NE 01:43:14 55° NE
Cosmos 2322 Rocket 4.4 01:47:34 10° N 01:51:39 20° NE 01:55:43 10° ESE
Cosmos 2058 4.2 02:03:23 39° N 02:03:23 39° N 02:06:05 10° N
Lacrosse 5 rocket 4.2 02:03:04 10° N 02:06:08 18° NE 02:09:16 10° ENE
Meteor 1-11 4.1 02:11:09 82° SE 02:11:17 83° E 02:17:07 10° N
IRAS Rocket 4.1 02:13:14 10° NNE 02:18:44 76° ESE 02:18:53 75° ESE
ERS-2 3.8 02:15:31 10° NNE 02:17:48 33° NE 02:17:48 33° NE
Cosmos 540 Rocket 3.6 02:15:29 10° NNW 02:19:58 65° NW 02:19:58 65° NW
Cosmos 1300 4.3 02:17:45 10° N 02:19:53 31° NNW 02:19:53 31° NNW
Cosmos 1980 Rocket 2.0 02:16:19 10° NNW 02:21:59 88° ENE 02:22:16 81° SE
Sich 1 3.6 02:30:31 52° NNW 02:30:31 52° NNW 02:34:03 10° N
NPP 3.7 02:26:38 10° NNE 02:32:01 68° ESE 02:32:33 64° SE
Lacrosse 5 1.8 02:28:01 10° NW 02:33:04 84° NE 02:33:04 84° NE
Meteor 1-4 Rocket 4.2 02:29:40 10° NNE 02:32:59 32° ENE 02:32:59 32° ENE
Cosmos 1745 Rocket 3.9 02:33:26 62° SW 02:34:18 71° W 02:40:39 10° N
USA 215 3.2 02:32:15 10° NE 02:38:49 82° NW 02:40:39 51° WSW
Cosmos 2082 Rocket 4.0 02:38:07 17° WNW 02:39:30 19° NW 02:43:27 10° N
Cosmos 1697 Rocket 3.7 02:37:08 10° NW 02:41:01 32° WNW 02:41:01 32° WNW
Nadezhda 1 Rocket 3.8 02:37:33 10° N 02:43:43 78° W 02:44:50 60° SSW
Meteor 2-10 4.3 02:38:47 10° N 02:44:01 65° E 02:45:29 46° SE
Cosmos 1709 Rocket 4.3 02:43:51 41° SSE 02:45:59 63° E 02:52:11 10° NNE
Cosmos 1833 Rocket 4.4 02:46:58 19° WNW 02:48:18 21° NW 02:52:27 10° N
Cosmos 1455 3.1 02:45:17 10° N 02:48:54 42° E 02:48:56 42° E
Cosmos 1862 Rocket 4.0 02:46:16 10° N 02:50:41 58° E 02:51:20 52° ESE
Cosmos 1726 3.9 02:47:12 10° NNW 02:49:00 25° NW 02:49:00 25° NW
Cosmos 371 Rocket 3.1 02:45:55 10° NNW 02:50:47 86° WSW 02:50:57 83° SSW
SEDSat Delta rocket 4.1 02:50:57 52° S 02:51:17 53° S 02:57:49 10° ESE
ATLAS 5 CENTAUR R/B 2.5 02:55:32 40° SE 02:56:09 42° ESE 03:00:58 10° NE
Cosmos 968 Rocket 3.7 02:59:21 48° W 02:59:49 50° WNW 03:04:49 10° N
IRS-1C 4.0 02:57:00 10° NNE 03:02:22 87° ESE 03:03:37 54° S
BREEZE-M DEB (TANK) 4.0 03:02:03 50° SW 03:03:35 80° SE 03:19:41 10° NE
Cosmos 2360 4.3 03:01:56 10° NNW 03:07:30 55° WSW 03:08:14 51° SW
Cosmos 1626 2.2 03:09:24 74° NNW 03:09:24 74° NNW 03:12:52 10° N
ISS -0.5 03:12:19 10° NNW 03:14:52 21° NNE 03:17:25 10° E
Cosmos 1869 3.2 03:11:03 10° N 03:15:02 81° E 03:15:30 67° SSE
CENTAUR R/B 3.9 03:11:58 19° W 03:15:07 28° NW 03:20:57 10° NNE
AQUA 4.0 03:10:31 10° N 03:15:08 52° WNW 03:15:48 48° WSW
H-2A ROCKET BODY 3.2 03:18:25 21° SE 03:18:25 21° SE 03:19:34 10° SE
Resurs 1-4 Rocket 3.1 03:11:56 10° NNE 03:16:57 40° E 03:20:06 20° SSE
ATLAS 2A CENTAUR R/B 4.0 03:17:51 27° S 03:21:23 36° SE 03:49:31 10° E
Cosmos 1538 Rocket 4.4 03:18:40 10° NNW 03:23:32 40° WSW 03:23:47 40° WSW
SL-16 R/B 2.1 03:18:11 10° NNW 03:23:52 78° WSW 03:27:28 23° SSE
Spot 4 Rocket 3.9 03:20:01 10° N 03:25:10 79° WNW 03:26:55 42° SSW
OAO 1 Rocket 4.5 03:24:50 44° WSW 03:26:06 55° SSW 03:31:20 10° ESE
Cosmos 923 Rocket 3.9 03:22:02 10° NNW 03:27:19 87° WSW 03:30:43 22° SSE
OAO 3 Rocket 3.0 03:28:58 49° WSW 03:30:03 68° S 03:34:43 10° E
Cosmos 1271 Rocket 3.6 03:29:49 10° NNW 03:32:41 33° WNW 03:32:41 33° WNW
Cosmos 2322 Rocket 2.2 03:30:35 10° NNW 03:36:04 55° WSW 03:38:47 29° S
EO 1 Del DPAF 3.3 03:34:36 30° SSE 03:36:26 78° ENE 03:40:21 10° N
Cosmos 1680 Rocket 3.4 03:31:22 10° NNW 03:36:37 86° ENE 03:41:38 11° SSE
USA 229 DEB 4.3 03:33:33 22° S 03:37:50 51° ESE 03:44:32 10° NE
USA 229 4.3 03:33:38 22° S 03:37:57 50° ESE 03:44:38 10° NE
GPS 2-05 Rocket1 2.8 03:40:06 57° SSE 03:40:06 57° SSE 03:43:18 10° E
Cosmos 2181 Rocket 4.0 03:37:05 10° NNW 03:43:06 58° W 03:46:40 25° SSW
Cosmos 773 Rocket 4.2 03:39:07 10° NNW 03:44:01 47° WSW 03:45:55 32° SSW
Cosmos 1933 3.2 03:40:17 10° N 03:44:19 90° W 03:46:19 29° S
Cosmos 1703 Rocket 3.4 03:41:22 10° N 03:45:44 88° W 03:48:20 24° S
SL-08 R/B 4.5 03:45:41 25° W 03:45:45 25° W 03:49:46 10° NW
Lacrosse 5 rocket 1.4 03:41:25 10° NW 03:45:50 75° SW 03:50:24 10° SE
BREEZE-M DEB (TANK) 4.0 03:46:46 18° WNW 03:48:59 37° N 03:57:10 10° NE
ARIANE 5 R/B 2.6 03:48:32 10° N 03:53:34 61° WNW 03:56:09 28° SW
IRS-1D 3.6 03:50:30 10° N 03:55:48 68° WNW 03:58:55 25° SSW
Cosmos 2292 Rocket 4.2 03:56:53 23° WNW 03:56:53 23° WNW 03:59:37 10° NNW
CZ-2D R/B 2.1 03:59:01 10° N 04:04:15 73° WNW 04:07:59 20° SSW
Cosmos 1898 Rocket 3.6 04:00:56 19° S 04:04:41 77° ESE 04:09:52 10° NNE
MOS 1-B 4.3 03:58:56 10° N 04:04:44 77° WNW 04:09:08 18° SSW
Cosmos 2360 Rocket 2.2 04:01:06 10° NNW 04:06:46 89° WSW 04:12:24 10° SSE
In-Cosmos 22 Rocket 4.2 04:04:53 13° S 04:09:39 78° E 04:15:03 10° NNE
Cosmos 2074 Rocket 4.1 04:07:23 18° SSW 04:11:58 60° W 04:18:10 10° N
Cosmos 1937 Rocket 3.9 04:07:56 13° S 04:12:39 65° ESE 04:17:54 10° NNE
Okean 1-7 3.0 04:08:33 10° NNW 04:12:56 71° W 04:17:13 10° S
Meteor 1-26 Rocket 4.1 04:08:02 10° N 04:13:36 82° W 04:19:06 10° S
SL-16 R/B 2.6 04:08:29 10° S 04:14:37 57° W 04:20:47 10° NNW
CZ-4B R/B 3.8 04:10:05 10° NNE 04:15:28 56° E 04:20:55 10° S
Cosmos 2184 Rocket 4.2 04:12:08 17° SSW 04:17:05 58° W 04:23:20 10° N
Cosmos 2219 3.2 04:14:49 17° SSW 04:19:15 80° WNW 04:25:02 10° NNE
Cosmos 2150 Rocket 4.0 04:15:52 18° SSW 04:19:52 73° WNW 04:25:16 10° NNE
Cosmos 2322 3.7 04:16:36 10° NNW 04:22:18 67° WSW 04:27:56 10° S
Okean O Rocket 1.6 04:21:02 10° NNE 04:25:29 90° ESE 04:29:53 10° SSW
MOZ.5/SAFIR/RUBIN 5/SL-8 4.2 04:30:43 10° SSE 04:35:21 67° ENE 04:40:02 10° N
GP-B 4.3 04:31:35 10° NNE 04:35:49 43° E 04:40:03 10° SSE
BREEZE-M DEB (TANK) 3.4 04:34:38 10° NW 04:36:58 29° NNE 04:39:04 10° E
ADEOS II 4.2 04:33:16 10° NE 04:37:36 25° E 04:41:55 10° SSE
SEDSat Delta rocket 4.5 04:31:19 10° W 04:37:37 41° SSW 04:43:40 10° SE
CZ-4B DEB 4.3 04:33:00 10° NNE 04:38:32 80° ESE 04:44:02 10° S
Cosmos 2297 Rocket 4.2 04:36:07 10° SSE 04:40:37 25° ESE 04:45:07 10° NE
ATLAS 5 CENTAUR R/B 3.4 04:37:05 10° W 04:41:01 24° NW 04:45:18 10° N
Cosmos 2333 Rocket 4.3 04:37:04 10° N 04:42:09 32° ENE 04:47:13 10° ESE
Cosmos 1892 2.7 04:39:33 10° S 04:43:26 80° W 04:47:20 10° N
PAYLOAD B 4.2 04:41:20 10° N 04:46:51 74° WNW 04:52:20 10° SSW
UNKNOWN OBJECT B 4.1 04:45:43 10° NNW 04:48:49 24° WNW 04:51:52 11° SW
ISS -3.0 04:48:19 10° WNW 04:51:27 43° SW 04:54:33 10° SSE
Okean-O 3.2 04:47:52 10° NNE 04:52:15 59° E 04:56:37 10° S
COSMOS 2428 2.7 04:47:07 10° NNW 04:52:48 77° WSW 04:58:27 10° SSE
BREEZE-M DEB (TANK) 3.4 04:43:20 10° WSW 04:53:48 64° NW 04:57:05 10° NE
Resurs 1-4 Rocket 3.5 04:52:22 10° NNW 04:56:30 23° WNW 05:00:38 10° WSW
NOSS 3-1 (C) 3.8 04:57:22 10° SSW 05:03:05 66° ESE 05:09:23 10° NE
Cosmos 292 Rocket 3.8 04:58:23 10° NNW 05:03:08 61° WSW 05:07:49 10° S
CZ-2C R/B 4.4 05:00:29 10° SSW 05:04:29 33° W 05:08:35 10° NNW
